Flag for Mongolia Weather past 2 weeks in Ulaanbaatar, Mongolia

Now
27 °F

Clear.


Feels Like: 27 °F
Forecast: 23 / 51 °F
Wind: No wind

Location: Ulan-Bator

Current Time: Oct 1, 2014 at 2:33:35 AM

Latest Report: Oct 1, 2014 at 2:00 AM


Visibility: 10 mi

Pressure: 30.04 "Hg

Humidity: 93%

Dew point: 25 °F

Location of UlaanbaatarLocation

Historic Weather in Ulaanbaatar — Graph

°F

Ulaanbaatar temperature yesterday

Maximum temperature yesterday: 45 °F (at 3:30 PM)
Minimum temperature yesterday: 23 °F (at 7:00 AM)
Average temperature yesterday: 35 °F

Past Weeks' High & Low Weather Summary

 TemperatureHumidityPressure
High72 °F (Sep 20, 3:00 PM)93% (Sep 16, 7:00 AM)30.42 "Hg (Sep 16, 7:00 AM)
Low7 °F (Sep 29, 7:00 AM)14% (Sep 26, 5:00 PM)29.80 "Hg (Sep 20, 7:00 PM)
Average41 °F52%30.07 "Hg
* Reported Sep 16 1:00 AM — Oct 1 1:00 AM, Ulaanbaatar, Weather by CustomWeather, © 2014

Note: Actual official high and low records may vary slightly from our data, if they occured in-between our weather recording intervals... More about our weather records

Advertising

Ulaanbaatar weather history for previous 24 hours

 ConditionsComfort  
Time TempWeatherWind HumidityBarometerVisibility
1:00 AM
Oct 1
27 °FPassing clouds.1 mph93%30.04 "HgN/A
12:30 AM27 °FPassing clouds.3 mph93%30.04 "HgN/A
12:00 AM28 °FPassing clouds.3 mph93%30.04 "HgN/A
11:30 PM
Sep 30
28 °FPassing clouds.1 mph93%30.04 "HgN/A
11:00 PM30 °FPassing clouds.1 mph86%30.04 "HgN/A
10:30 PM32 °FPassing clouds.1 mph80%30.04 "HgN/A
10:00 PM34 °FPassing clouds.1 mph81%30.04 "HgN/A
9:30 PM32 °FPassing clouds.6 mph87%30.04 "HgN/A
9:00 PM34 °FPassing clouds.3 mph81%30.04 "HgN/A
8:30 PM34 °FPassing clouds.3 mph81%30.04 "HgN/A
8:00 PM34 °FPassing clouds.3 mph81%30.01 "HgN/A
7:30 PM36 °FPartly sunny.3 mph81%30.01 "HgN/A
7:00 PM39 °FPartly sunny.1 mph75%30.01 "HgN/A
6:30 PM41 °FPartly sunny.1 mph61%30.01 "HgN/A
6:00 PM43 °FPartly sunny.1 mph53%30.01 "HgN/A
5:30 PM43 °FPartly sunny.1 mph53%30.01 "HgN/A
5:00 PM43 °FPartly sunny.No wind49%30.01 "HgN/A
4:30 PM43 °FPartly sunny.No wind49%30.01 "HgN/A
4:00 PM43 °FPartly sunny.1 mph49%30.01 "HgN/A
3:30 PM45 °FPartly sunny.3 mph46%30.04 "HgN/A
3:00 PM43 °FPartly sunny.3 mph49%30.04 "HgN/A
2:30 PM43 °FPartly sunny.1 mph53%30.04 "HgN/A
2:00 PM43 °FPartly sunny.No wind49%30.07 "HgN/A
1:30 PM43 °FPartly sunny.No wind46%30.07 "HgN/A
1:00 PM41 °FPartly sunny.1 mph49%30.07 "HgN/A
12:30 PM41 °FPartly sunny.No wind49%30.07 "HgN/A
12:00 PM39 °FPartly sunny.No wind52%30.07 "HgN/A
11:30 AM37 °FPartly sunny.1 mph56%30.07 "HgN/A
11:00 AM37 °FScattered clouds.No wind56%30.07 "HgN/A
10:30 AM37 °FPartly sunny.1 mph56%30.09 "HgN/A
10:00 AM36 °FPartly sunny.No wind60%30.09 "HgN/A
9:30 AM32 °FPartly sunny.No wind69%30.09 "HgN/A
9:00 AM30 °FPartly sunny.No wind75%30.09 "HgN/A
8:30 AM28 °FPartly sunny.1 mph80%30.09 "HgN/A
8:00 AM27 °FPartly sunny.No wind86%30.09 "HgN/A
7:30 AM25 °FPassing clouds.1 mph86%30.09 "HgN/A
7:00 AM23 °FClear.No wind93%30.12 "Hg10 mi
6:30 AM25 °FClear.1 mph86%30.12 "Hg10 mi
6:00 AM27 °FClear.No wind80%30.12 "Hg10 mi
5:30 AM27 °FClear.1 mph80%30.12 "Hg10 mi
5:00 AM27 °FClear.No wind80%30.12 "Hg10 mi
4:30 AM28 °FClear.1 mph74%30.12 "Hg10 mi
4:00 AM28 °FPassing clouds.No wind74%30.15 "HgN/A
3:00 AM32 °FPassing clouds.6 mph64%30.15 "HgN/A
2:00 AM30 °FPassing clouds.3 mph69%30.18 "HgN/A
Weather by CustomWeather, © 2014

See weather overviewHow to use our weather pages